7 * 24
多渠道服务支持
STARLINK-11244 是 SpaceX Starlink 卫星互联网项目中的一颗低轨道卫星,属于第50组 Starlink 卫星群。该卫星于2023年发射,旨在为全球用户提供高速互联网服务。它运行在约550公里高的近地轨道,采用先进的相控阵天线和激光通信技术,以提升网络连接的稳定性和速度。Starlink 项目致力于改善偏远地区的网络覆盖,同时支持各类商业和军事应用。
美国
(US)
| 数据来源 | 国际轨道数据 |
| 星历时间: | 2025-10-28T13:00:10+0800 1天前 查看轨道信息 |
| 半长轴: | 6737.879km |
| 偏心率: | 0.0001103 |
| 轨道倾角: | 53.158° |
| 近地点辐角 | 78.092° |
| 升交点赤经 | 274.416° |
| 平近点角 | 282.023° |
| 近地点: | 359km |
| 远地点: | 360.488km |
| 周期: | 91.737分钟 |
| 每日圈数: | 15.69705 |